Fallon NAS, NV

9:39 PM PDT on July 20, 2017 (GMT -0700)
Fallon Naval Air Station

Weather History for KNFL - December, 2012

Change the Weather History Date:

Wednesday, December 19, 2012

  Actual Average Record
Temperature  
Mean Temperature 24 °F -  
Max Temperature 35 °F 42 °F 64 °F (1941)
Min Temperature 14 °F 18 °F 2 °F (1928)
Degree Days  
Heating Degree Days 40    
Moisture  
Dew Point 10 °F    
Average Humidity 49    
Maximum Humidity 73    
Minimum Humidity 28    
Precipitation  
Precipitation 0.00 in - - ()
Sea Level Pressure  
Sea Level Pressure 30.09 in    
Wind  
Wind Speed 4 mph (SSE)    
Max Wind Speed 12 mph    
Max Gust Speed -    
Visibility 10 miles    
Events      
Averages and records for this station are not official NWS values.
T = Trace of Precipitation, MM = Missing Value Source: NWS Daily Summary

Daily Weather History Graph

Daily Weather History Graph

Search for Another Location

Airport or City:

Trip Planner

Search our weather history database for the weather conditions in past years. The results will help you decide how hot, cold, wet, or windy it might be!

Date:

Astronomy

Dec. 19, 2012 Rise Set
Actual Time 7:10 AM PST 4:33 PM PST
Civil Twilight 6:40 AM PST 5:04 PM PST
Nautical Twilight 6:06 AM PST 5:37 PM PST
Astronomical Twilight 5:33 AM PST 6:10 PM PST
Moon 11:23 AM PST (12/19) No Moon Set
Length of Visible Light 10h 23m
Length of Day
9h 23m
Waxing Crescent, 46% of the Moon is Illuminated
Dec 19
Waxing Crescent
Dec 19
First Quarter
Dec 28
Full
Jan 4
Last Quarter
Jan 11
New

Hourly Weather History & Observations

Time (PST) Temp. Windchill Dew Point Humidity Pressure Visibility Wind Dir Wind Speed Gust Speed Precip Events Conditions
12:56 AM - - - N/A% 29.98 in - North - - N/A   Unknown
1:56 AM - - - N/A% 30.01 in - North - - N/A   Unknown
2:56 AM - - - N/A% 30.02 in - North - - N/A   Unknown
3:56 AM - - - N/A% 30.04 in - North - - N/A   Unknown
4:56 AM - - - N/A% 30.06 in - North - - N/A   Unknown
5:56 AM - - - N/A% 30.06 in - North - - N/A   Unknown
6:18 AM 15.8 °F 10.2 °F 1.4 °F 53% 30.18 in 10.0 mi SE 3.5 mph - N/A   Clear
6:56 AM 17.1 °F - 7.5 °F 66% 30.08 in 10.0 mi Calm Calm - N/A   Clear
7:58 AM 14.0 °F - 6.8 °F 73% 30.21 in 10.0 mi Calm Calm - N/A   Partly Cloudy
8:56 AM 22.3 °F 17.6 °F 13.3 °F 68% 30.12 in 10.0 mi SSE 3.5 mph - N/A   Partly Cloudy
9:56 AM 27.7 °F 22.4 °F 13.6 °F 56% 30.14 in 10.0 mi SSE 4.6 mph - N/A   Scattered Clouds
10:56 AM 30.9 °F 23.5 °F 13.6 °F 49% 30.14 in 10.0 mi SSE 8.1 mph - N/A   Mostly Cloudy
11:56 AM 33.3 °F 24.6 °F 11.8 °F 41% 30.12 in 10.0 mi SSE 11.5 mph - N/A   Mostly Cloudy
12:56 PM 34.7 °F 27.5 °F 10.2 °F 36% 30.12 in 10.0 mi South 9.2 mph - N/A   Mostly Cloudy
1:56 PM 34.7 °F 28.1 °F 5.9 °F 30% 30.09 in 10.0 mi South 8.1 mph - N/A   Mostly Cloudy
2:56 PM 35.1 °F 29.3 °F 5.0 °F 28% 30.09 in 10.0 mi South 6.9 mph - N/A   Overcast
3:56 PM 34.9 °F 29.0 °F 5.7 °F 30% 30.09 in 10.0 mi South 6.9 mph - N/A   Overcast
4:56 PM 32.0 °F - 9.7 °F 39% 30.09 in 10.0 mi Calm Calm - N/A   Overcast
5:56 PM 29.8 °F 24.9 °F 13.1 °F 50% 30.09 in 10.0 mi Variable 4.6 mph - N/A   Mostly Cloudy
6:56 PM 27.9 °F 22.6 °F 11.3 °F 50% 30.09 in 10.0 mi Variable 4.6 mph - N/A   Scattered Clouds
7:56 PM 27.9 °F 22.6 °F 11.3 °F 50% 30.09 in 10.0 mi Variable 4.6 mph - N/A   Partly Cloudy
8:56 PM 26.6 °F - 11.3 °F 53% 30.09 in 10.0 mi Calm Calm - N/A   Scattered Clouds
9:56 PM 24.4 °F 20.1 °F 10.8 °F 56% 30.09 in 10.0 mi Variable 3.5 mph - N/A   Scattered Clouds
10:56 PM 24.4 °F 20.1 °F 10.8 °F 56% 30.08 in 10.0 mi Variable 3.5 mph - N/A   Scattered Clouds
11:56 PM - - - N/A% 30.08 in - North - - N/A   Unknown